TimeCDT,TemperatureF,Dew PointF,Humidity,Sea Level PressureIn,VisibilityMPH,Wind Direction,Wind SpeedMPH,Gust SpeedMPH,PrecipitationIn,Events,Conditions,WindDirDegrees,DateUTC
12:53 AM,46.9,37.9,71,29.85,7.0,NNE,11.5,21.9,N/A,,Overcast,20,2013-03-17 05:53:00
1:53 AM,45.0,37.0,74,29.86,7.0,North,19.6,25.3,0.00,,Mostly Cloudy,10,2013-03-17 06:53:00
2:53 AM,45.0,37.0,74,29.83,7.0,NNE,15.0,27.6,0.00,,Mostly Cloudy,20,2013-03-17 07:53:00
3:39 AM,44.1,37.0,76,29.84,7.0,North,15.0,26.5,N/A,,Mostly Cloudy,10,2013-03-17 08:39:00
3:53 AM,44.1,37.0,76,29.83,7.0,North,13.8,24.2,N/A,,Overcast,10,2013-03-17 08:53:00
4:53 AM,42.1,36.0,79,29.84,8.0,North,18.4,25.3,N/A,,Overcast,10,2013-03-17 09:53:00
5:07 AM,42.1,36.0,79,29.85,8.0,NNE,19.6,28.8,N/A,,Overcast,20,2013-03-17 10:07:00
5:53 AM,42.1,36.0,79,29.85,9.0,North,16.1,27.6,N/A,,Overcast,10,2013-03-17 10:53:00
6:53 AM,41.0,37.0,86,29.86,5.0,NE,16.1,21.9,0.00,,Light Drizzle,40,2013-03-17 11:53:00
7:33 AM,41.0,37.9,89,29.86,6.0,NNE,6.9,-,0.00,,Light Drizzle,30,2013-03-17 12:33:00
7:53 AM,41.0,37.9,89,29.85,5.0,NNE,9.2,-,0.00,,Light Drizzle,20,2013-03-17 12:53:00
8:53 AM,42.1,37.9,85,29.85,10.0,NE,12.7,-,0.00,,Overcast,40,2013-03-17 13:53:00
9:22 AM,42.1,37.9,85,29.85,9.0,NE,13.8,-,N/A,,Overcast,40,2013-03-17 14:22:00
9:53 AM,42.1,37.9,85,29.85,10.0,NNE,11.5,-,N/A,,Overcast,30,2013-03-17 14:53:00
10:21 AM,43.0,39.0,86,29.83,10.0,NE,10.4,-,N/A,,Overcast,40,2013-03-17 15:21:00
10:53 AM,43.0,39.0,86,29.84,10.0,NE,11.5,-,N/A,,Overcast,40,2013-03-17 15:53:00
11:53 AM,45.0,39.0,80,29.81,10.0,NE,9.2,-,N/A,,Overcast,50,2013-03-17 16:53:00
12:53 PM,45.0,39.9,82,29.79,6.0,NNE,6.9,-,N/A,,Haze,20,2013-03-17 17:53:00
1:53 PM,46.0,41.0,83,29.77,8.0,NE,8.1,-,N/A,,Overcast,50,2013-03-17 18:53:00
2:19 PM,45.0,41.0,86,29.76,7.0,NNW,6.9,-,N/A,,Overcast,340,2013-03-17 19:19:00
2:53 PM,44.6,42.8,93,29.74,2.0,NW,9.2,-,N/A,,Light Drizzle,320,2013-03-17 19:53:00
2:55 PM,44.1,42.1,93,29.74,1.8,NW,9.2,-,0.00,,Light Drizzle,320,2013-03-17 19:55:00
3:15 PM,44.1,43.0,96,29.73,1.5,NNW,6.9,-,0.00,,Light Drizzle,340,2013-03-17 20:15:00
3:53 PM,44.1,43.0,96,29.72,1.8,NW,6.9,-,0.00,,Light Drizzle,320,2013-03-17 20:53:00
3:59 PM,44.1,43.0,96,29.72,2.0,NW,9.2,-,0.00,,Light Drizzle,320,2013-03-17 20:59:00
4:31 PM,44.1,42.1,93,29.72,3.0,NNW,9.2,-,0.00,,Light Drizzle,330,2013-03-17 21:31:00
4:50 PM,44.6,42.8,93,29.71,4.0,NNW,9.2,-,0.00,,Light Drizzle,330,2013-03-17 21:50:00
4:53 PM,44.1,42.1,93,29.72,4.0,NNW,9.2,-,0.00,,Light Drizzle,330,2013-03-17 21:53:00
5:53 PM,44.1,42.1,93,29.71,4.0,North,8.1,-,0.00,,Overcast,350,2013-03-17 22:53:00
6:53 PM,44.1,42.1,93,29.71,7.0,NNW,5.8,-,N/A,,Overcast,330,2013-03-17 23:53:00
7:53 PM,44.1,41.0,89,29.70,7.0,North,4.6,-,N/A,,Overcast,350,2013-03-18 00:53:00
8:53 PM,43.0,42.1,97,29.73,3.0,NNW,5.8,-,0.00,,Light Drizzle,330,2013-03-18 01:53:00
9:12 PM,43.0,42.1,97,29.73,3.0,NW,4.6,-,0.00,,Light Drizzle,310,2013-03-18 02:12:00
9:53 PM,43.0,42.1,97,29.74,3.0,NW,3.5,-,0.00,,Light Drizzle,310,2013-03-18 02:53:00
10:38 PM,43.0,42.1,97,29.75,2.5,WNW,5.8,-,0.00,,Light Drizzle,300,2013-03-18 03:38:00
10:53 PM,43.0,42.1,97,29.76,2.5,NW,5.8,-,0.00,,Light Drizzle,320,2013-03-18 03:53:00
11:53 PM,43.0,42.1,97,29.72,2.5,Calm,Calm,-,0.00,,Light Drizzle,0,2013-03-18 04:53:00